[[{"header":{"parameterUnit":"m.s-1","parameterCategory":1,"la1":30.2991,"la2":30.254,"lo1":-89.0895,"lo2":-89.0444,"dy":0.0017,"dx":0.0017,"nx":28,"ny":28,"refTime":"2024-12-16T09:00:00:Z","depth":0,"parameterNumber":2,"parameterNumberName":"U-component_of_WINDS"},"data":[0,0,0,0,0,0,0,0,0,0,0,0,0,0,0,0,0,0,0,0,0,0,0,0,0,0,0,0,0,0,0,0,0,0,0,0,0,0,0,0,0,0,0,0,0,0,0,0,0,0,0,0,0,0,0,0,0,0,-3.1967,-3.1967,0,-3.199,-3.199,-3.1991,-3.1916,-3.1914,-3.1911,-3.1909,-3.1936,-3.1939,-3.1942,0,0,0,0,0,0,0,0,0,0,0,0,0,-3.186,-3.1863,-3.1966,-3.1967,-3.1967,-3.199,-3.199,-3.1991,-3.1916,-3.1913,-3.1911,-3.1908,-3.1935,-3.1939,-3.1942,0,0,0,0,0,0,0,0,0,0,0,0,0,-3.1898,-3.1863,-3.1966,-3.1933,-3.193,-3.199,-3.199,-3.1991,-3.1917,-3.1913,-3.191,-3.1907,-3.1934,-3.1938,-3.1942,-3.2037,0,0,-3.1955,-3.1957,0,0,0,0,0,0,0,0,-3.1896,-3.1901,-3.1937,-3.1935,-3.1932,-3.1946,-3.1963,-3.2006,-3.1918,-3.1922,-3.1909,-3.1905,-3.1943,-3.1946,-3.1958,-3.2038,-3.204,-3.1956,-3.1958,-3.196,-3.1961,0,0,0,0,0,0,0,-3.1893,-3.19,-3.1976,-3.1938,-3.1935,-3.1917,-3.1919,-3.1971,-3.1951,-3.1921,-3.1916,-3.192,-3.194,-3.1954,-3.1958,-3.204,-3.1956,-3.1959,-3.1962,-3.1964,-3.2201,-3.2205,0,0,0,0,0,0,-3.1894,-3.1898,-3.1975,-3.1977,-3.1905,-3.1922,-3.1924,-3.1945,-3.195,-3.1948,-3.1922,-3.1916,-3.1948,-3.1953,-3.1959,-3.2071,-3.196,-3.1964,-3.1967,-3.2197,-3.2202,-3.2206,0,0,0,0,0,0,-3.1892,-3.1902,-3.1974,-3.1936,-3.1944,-3.1927,-3.1952,-3.1948,-3.1961,-3.1951,-3.1948,-3.194,-3.1946,-3.1953,-3.2018,-3.207,-3.1966,-3.197,-3.2193,-3.2199,-3.2204,-3.2295,0,0,0,0,0,0,-3.189,-3.1902,-3.1937,-3.1937,-3.1946,-3.2033,-3.1956,-3.1951,-3.1968,-3.196,-3.1966,-3.1964,-3.1944,-3.2012,-3.2023,-3.2074,-3.1973,-3.2188,-3.2195,-3.2202,-3.2287,-3.2303,-3.2317,0,0,0,0,0,-3.1886,-3.1962,-3.1939,-3.1948,-3.1989,-3.2036,-3.2041,-3.2015,-3.1973,-3.2008,-3.2002,-3.1964,-3.2063,-3.202,-3.2031,-3.2085,-3.2185,-3.2193,-3.2202,-3.2281,-3.23,-3.2316,0,0,0,0,0,0,-3.1968,-3.1961,-3.1936,-3.2013,-3.2026,-3.2023,-3.2067,-3.2036,-3.2061,-3.2052,-3.202,-3.2022,-3.2094,-3.2096,-3.2048,-3.2177,-3.2117,-3.2128,-3.2173,-3.2192,-3.2206,-3.2204,-3.1977,0,0,0,0,0,-3.1995,-3.2032,-3.2024,-3.2094,-3.2101,-3.2084,-3.2103,-3.2082,-3.2093,-3.2098,-3.2097,-3.2111,-3.2145,-3.2168,-3.2199,-3.2287,-3.2288,-3.233,-3.2345,-3.2357,-3.2367,-3.2415,-3.2433,-3.2234,-3.2233,-3.2233,0,0,-3.2051,-3.2052,-3.2078,-3.211,-3.2117,-3.2158,-3.2088,-3.2134,-3.2164,-3.2106,-3.2167,-3.2167,-3.2181,-3.2258,-3.2292,-3.2262,-3.2422,-3.2367,-3.2377,-3.2381,-3.2425,-3.2444,-3.2461,-3.2239,-3.2238,-3.2237,0,0,-3.2174,-3.2178,-3.2237,-3.2246,-3.2257,-3.2245,-3.2259,-3.2262,-3.2259,-3.2321,-3.2278,-3.2314,-3.2374,-3.2385,-3.2399,-3.2529,-3.2495,-3.254,-3.2616,-3.2663,-3.2679,-3.2693,-3.274,-3.2757,-3.255,-3.255,-3.255,0,-3.2243,-3.2301,-3.2271,-3.232,-3.2336,-3.2285,-3.2345,-3.2355,-3.2377,-3.239,-3.2355,-3.243,-3.2435,-3.2515,-3.2547,-3.256,-3.2576,-3.2539,-3.2679,-3.2693,-3.2705,-3.275,-3.2767,-3.2555,-3.2555,-3.2554,-3.2554,0,-3.2386,-3.2427,-3.2473,-3.2495,-3.2516,-3.257,-3.255,-3.2576,-3.2554,-3.2546,-3.261,-3.2615,-3.2646,-3.2664,-3.2642,-3.2742,-3.2722,-3.2684,-3.2623,-3.273,-3.2771,-3.2788,-3.2563,-3.2561,-3.2559,-3.2558,0,0,-3.256,-3.2565,-3.2583,-3.2592,-3.2602,-3.2634,-3.2687,-3.2717,-3.274,-3.2757,-3.2801,-3.2853,-3.2818,-3.2834,-3.2814,-3.2855,-3.2959,-3.2812,-3.2812,-3.284,-3.307,-3.3099,-3.3119,-3.2937,-3.294,-3.2942,-3.3069,0,-3.2681,-3.277,-3.2746,-3.2836,-3.2874,-3.2827,-3.2873,-3.2885,-3.2879,-3.2912,-3.2906,-3.2944,-3.2894,-3.2904,-3.2943,-3.2938,-3.3005,-3.2929,-3.2979,-3.2981,-3.2977,-3.314,-3.3171,-3.329,-3.3085,-3.3087,-3.3089,0,-3.2835,-3.2857,-3.2951,-3.2955,-3.2971,-3.3012,-3.3039,-3.307,-3.3084,-3.3077,-3.3095,-3.3067,-3.3121,-3.3059,-3.3133,-3.3082,-3.3101,-3.3102,-3.3106,-3.311,-3.3042,-3.3149,-3.3327,-3.3345,-3.3114,-3.3112,-3.3111,0,-3.2953,-3.3007,-3.307,-3.308,-3.3087,-3.3117,-3.3122,-3.3131,-3.3152,-3.3175,-3.3188,-3.3219,-3.3235,-3.326,-3.3241,-3.3198,-3.3319,-3.3256,-3.3316,-3.3316,-3.3343,-3.3342,-3.3527,-3.3355,-3.3355,-3.3355,-3.3354,0,-3.3091,-3.3151,-3.3124,-3.3163,-3.3228,-3.32,-3.3266,-3.3265,-3.3275,-3.3314,-3.3275,-3.3313,-3.3286,-3.3322,-3.3308,-3.3372,-3.338,-3.3376,-3.3372,-3.338,-3.3381,-3.3392,-3.3383,-3.3359,-3.3358,-3.3358,-3.3357,0,-3.3234,-3.3219,-3.3284,-3.3286,-3.3288,-3.3336,-3.3337,-3.3374,-3.3366,-3.3416,-3.3426,-3.3414,-3.3454,-3.3438,-3.3481,-3.3472,-3.3554,-3.3539,-3.355,-3.3546,-3.3607,-3.3602,-3.3806,-3.3832,-3.3644,-3.3646,-3.3647,0,-3.3324,-3.3368,-3.3374,-3.3397,-3.3404,-3.3442,-3.3462,-3.3437,-3.3461,-3.348,-3.3515,-3.3552,-3.3579,-3.3647,-3.3642,-3.3675,-3.3661,-3.373,-3.3666,-3.3673,-3.3663,-3.366,-3.3665,-3.3743,-3.3746,-3.3747,-3.3749,0,-3.3484,-3.3474,-3.3505,-3.3534,-3.3559,-3.3581,-3.3599,-3.362,-3.3596,-3.3625,-3.3665,-3.3687,-3.3731,-3.3769,-3.3798,-3.3804,-3.3774,-3.3769,-3.3785,-3.3794,-3.3798,-3.3797,-3.3585,-3.3765,-3.3763,-3.3762,-3.3761,-3.376,-3.3603,-3.364,-3.3651,-3.3687,-3.3698,-3.3716,-3.3751,-3.3748,-3.3781,-3.3814,-3.3798,-3.3845,-3.3859,-3.3896,-3.3906,-3.3944,-3.3917,-3.3939,-3.3945,-3.3951,-3.3959,-3.3792,-3.3949,-3.3949,-3.3948,-3.3948,-3.3947,0,-3.3761,-3.3766,-3.3799,-3.3826,-3.3855,-3.3823,-3.3842,-3.3868,-3.391,-3.3925,-3.3954,-3.4001,-3.4038,-3.4037,-3.4072,-3.4102,-3.4089,-3.4112,-3.4109,-3.4112,-3.3981,-3.3964,-3.4122,-3.4122,-3.4122,-3.4122,-3.4122,-3.4122,-3.3847,-3.3909,-3.3902,-3.397,-3.3974,-3.402,-3.4034,-3.4051,-3.4063,-3.4117,-3.4147,-3.4146,-3.4156,-3.4191,-3.4224,-3.4222,-3.4237,-3.4266,-3.426,-3.4138,-3.4121,-3.4104,-3.4088,-3.4269,-3.4269,-3.4387,-3.4388,-3.4389]},{"header":{"parameterUnit":"m.s-1","parameterCategory":1,"la1":30.2991,"la2":30.254,"lo1":-89.0895,"lo2":-89.0444,"dy":0.0017,"dx":0.0017,"nx":28,"ny":28,"refTime":"2024-12-16T09:00:00:Z","depth":0,"parameterNumber":3,"parameterNumberName":"V-component_of_WINDS"},"data":[0,0,0,0,0,0,0,0,0,0,0,0,0,0,0,0,0,0,0,0,0,0,0,0,0,0,0,0,0,0,0,0,0,0,0,0,0,0,0,0,0,0,0,0,0,0,0,0,0,0,0,0,0,0,0,0,0,0,-0.9556,-0.9557,0,-0.957,-0.957,-0.957,-0.955,-0.955,-0.9549,-0.9548,-0.9561,-0.9562,-0.9563,0,0,0,0,0,0,0,0,0,0,0,0,0,-0.9512,-0.9513,-0.9556,-0.9557,-0.9557,-0.957,-0.957,-0.957,-0.955,-0.9549,-0.9549,-0.9548,-0.9561,-0.9562,-0.9563,0,0,0,0,0,0,0,0,0,0,0,0,0,-0.9529,-0.9513,-0.9556,-0.9548,-0.9548,-0.957,-0.957,-0.957,-0.9551,-0.9549,-0.9548,-0.9547,-0.9561,-0.9562,-0.9564,-0.9594,0,0,-0.9568,-0.9569,0,0,0,0,0,0,0,0,-0.9528,-0.9531,-0.9549,-0.9549,-0.9548,-0.9557,-0.9559,-0.9578,-0.9551,-0.955,-0.9548,-0.9547,-0.9561,-0.9562,-0.9567,-0.9594,-0.9595,-0.9568,-0.9569,-0.957,-0.957,0,0,0,0,0,0,0,-0.9527,-0.953,-0.9562,-0.955,-0.9549,-0.9544,-0.9545,-0.9563,-0.9561,-0.955,-0.9548,-0.955,-0.956,-0.9566,-0.9567,-0.9595,-0.9568,-0.957,-0.957,-0.9571,-0.9646,-0.9647,0,0,0,0,0,0,-0.9527,-0.9529,-0.9561,-0.9562,-0.9536,-0.9545,-0.9547,-0.9556,-0.9561,-0.956,-0.9551,-0.9549,-0.9564,-0.9565,-0.9568,-0.9602,-0.957,-0.9571,-0.9572,-0.9645,-0.9647,-0.9648,0,0,0,0,0,0,-0.9526,-0.953,-0.9561,-0.9545,-0.9549,-0.9547,-0.9557,-0.9556,-0.9562,-0.9562,-0.9561,-0.9557,-0.9563,-0.9565,-0.9587,-0.9603,-0.9572,-0.9573,-0.9644,-0.9646,-0.9647,-0.9673,0,0,0,0,0,0,-0.9525,-0.953,-0.9542,-0.9546,-0.955,-0.9581,-0.9558,-0.9557,-0.9564,-0.9562,-0.9567,-0.9567,-0.9562,-0.9585,-0.9589,-0.9604,-0.9574,-0.9643,-0.9645,-0.9647,-0.967,-0.9675,-0.9679,0,0,0,0,0,-0.9523,-0.9549,-0.9542,-0.9546,-0.9565,-0.9582,-0.9584,-0.9578,-0.9566,-0.9577,-0.9577,-0.9567,-0.96,-0.9587,-0.9591,-0.9607,-0.9642,-0.9644,-0.9646,-0.9669,-0.9674,-0.9679,0,0,0,0,0,0,-0.9547,-0.9549,-0.9542,-0.957,-0.9576,-0.9578,-0.9593,-0.9584,-0.9594,-0.9591,-0.9584,-0.9585,-0.9608,-0.961,-0.9595,-0.9636,-0.9619,-0.9622,-0.9634,-0.9639,-0.9644,-0.9643,-0.9576,0,0,0,0,0,-0.9555,-0.9569,-0.957,-0.9594,-0.9597,-0.9595,-0.9602,-0.9597,-0.9603,-0.9605,-0.9606,-0.9612,-0.9624,-0.9632,-0.9643,-0.9671,-0.9671,-0.9683,-0.9688,-0.9691,-0.9694,-0.9708,-0.9713,-0.9656,-0.9656,-0.9656,0,0,-0.9573,-0.9575,-0.9585,-0.9599,-0.9603,-0.9617,-0.9597,-0.9613,-0.9623,-0.9607,-0.9628,-0.9629,-0.9635,-0.9659,-0.967,-0.9661,-0.971,-0.9694,-0.9697,-0.9698,-0.9711,-0.9716,-0.9721,-0.9658,-0.9657,-0.9657,0,0,-0.9611,-0.9615,-0.9635,-0.9639,-0.9645,-0.9643,-0.9648,-0.9651,-0.9652,-0.9672,-0.966,-0.9672,-0.9692,-0.9697,-0.9701,-0.974,-0.9731,-0.9744,-0.9766,-0.9779,-0.9784,-0.9788,-0.9801,-0.9806,-0.9747,-0.9747,-0.9747,0,-0.9632,-0.9653,-0.9646,-0.9663,-0.9669,-0.9655,-0.9674,-0.9679,-0.9688,-0.9692,-0.9683,-0.9707,-0.971,-0.9735,-0.9744,-0.9749,-0.9754,-0.9743,-0.9784,-0.9788,-0.9791,-0.9804,-0.9809,-0.9748,-0.9748,-0.9748,-0.9748,0,-0.9678,-0.9692,-0.9708,-0.9717,-0.9724,-0.9742,-0.9738,-0.9746,-0.974,-0.9739,-0.9759,-0.9762,-0.9772,-0.9778,-0.9773,-0.9802,-0.9796,-0.9785,-0.9767,-0.9798,-0.981,-0.9815,-0.9751,-0.975,-0.975,-0.9749,0,0,-0.9733,-0.9737,-0.9742,-0.9746,-0.9751,-0.9761,-0.9778,-0.9789,-0.9796,-0.9802,-0.9815,-0.9833,-0.9822,-0.9828,-0.9823,-0.9834,-0.9864,-0.9822,-0.9822,-0.9829,-0.9895,-0.9903,-0.9908,-0.9857,-0.9858,-0.9859,-0.9894,0,-0.977,-0.98,-0.9793,-0.9822,-0.9834,-0.9821,-0.9835,-0.9839,-0.9838,-0.9848,-0.9847,-0.9859,-0.9845,-0.9848,-0.9859,-0.9858,-0.9877,-0.9855,-0.9869,-0.987,-0.9868,-0.9915,-0.9923,-0.9956,-0.9899,-0.99,-0.99,0,-0.9819,-0.9827,-0.9856,-0.9858,-0.9863,-0.9876,-0.9884,-0.9895,-0.9899,-0.9897,-0.9902,-0.9895,-0.991,-0.9892,-0.9914,-0.9899,-0.9904,-0.9904,-0.9906,-0.9906,-0.9887,-0.9916,-0.9967,-0.9972,-0.9907,-0.9907,-0.9906,0,-0.9855,-0.9873,-0.9892,-0.9896,-0.9899,-0.9908,-0.9909,-0.9913,-0.9919,-0.9926,-0.9929,-0.9938,-0.9943,-0.995,-0.9944,-0.9932,-0.9966,-0.9948,-0.9965,-0.9965,-0.9972,-0.9972,-1.0024,-0.9976,-0.9976,-0.9976,-0.9976,0,-0.9898,-0.9916,-0.9908,-0.992,-0.994,-0.9932,-0.9952,-0.9952,-0.9955,-0.9966,-0.9955,-0.9966,-0.9958,-0.9968,-0.9963,-0.9981,-0.9983,-0.9982,-0.998,-0.9983,-0.9983,-0.9986,-0.9983,-0.9978,-0.9977,-0.9977,-0.9977,0,-0.9941,-0.9937,-0.9957,-0.9958,-0.9958,-0.9973,-0.9973,-0.9984,-0.9981,-0.9996,-0.9999,-0.9995,-1.0006,-1.0001,-1.0012,-1.0009,-1.0032,-1.0028,-1.003,-1.0029,-1.0046,-1.0044,-1.0101,-1.0108,-1.0057,-1.0057,-1.0058,0,-0.9969,-0.9982,-0.9984,-0.9991,-0.9993,-1.0004,-1.001,-1.0002,-1.0009,-1.0014,-1.0024,-1.0034,-1.0041,-1.0059,-1.0057,-1.0066,-1.0062,-1.0081,-1.0063,-1.0064,-1.0061,-1.006,-1.0061,-1.0085,-1.0085,-1.0086,-1.0086,0,-1.0018,-1.0014,-1.0023,-1.0031,-1.0039,-1.0045,-1.005,-1.0056,-1.0048,-1.0056,-1.0067,-1.0073,-1.0084,-1.0094,-1.0101,-1.0102,-1.0093,-1.0092,-1.0096,-1.0098,-1.0099,-1.0098,-1.004,-1.0091,-1.009,-1.009,-1.009,-1.0089,-1.0054,-1.0064,-1.0067,-1.0077,-1.008,-1.0084,-1.0094,-1.0093,-1.0101,-1.011,-1.0105,-1.0117,-1.012,-1.0129,-1.0131,-1.014,-1.0133,-1.0139,-1.014,-1.0142,-1.0144,-1.0098,-1.0142,-1.0142,-1.0142,-1.0141,-1.0141,0,-1.0101,-1.0102,-1.0111,-1.0118,-1.0125,-1.0116,-1.012,-1.0127,-1.0138,-1.0142,-1.0149,-1.0161,-1.017,-1.0168,-1.0177,-1.0184,-1.018,-1.0187,-1.0186,-1.0186,-1.0151,-1.0146,-1.019,-1.019,-1.019,-1.019,-1.019,-1.019,-1.0127,-1.0144,-1.0141,-1.016,-1.016,-1.0172,-1.0176,-1.0179,-1.0182,-1.0196,-1.0203,-1.0202,-1.0203,-1.0211,-1.0218,-1.0218,-1.0221,-1.0229,-1.0226,-1.0193,-1.0189,-1.0184,-1.018,-1.023,-1.023,-1.0261,-1.0261,-1.0261]}]]